{"data":{"norad_id":59927,"intl_designator":"2024-106F","name":"STARLINK-31968","alt_names":[],"object_type":"PAYLOAD","status":"ACTIVE","operator":null,"country":"US","launch_date":"2024-06-01","launch_site_code":"AFETR","launch_vehicle":null,"mission":null,"orbit_class":"UNKNOWN","rcs_meters":null,"size_class":null,"mass_kg":null,"dimensions":null,"purposes":["comms"],"wikipedia_slug":null,"has_3d_model":false,"image_url":null,"decayed_at":null,"tle_current":{"epoch":"2026-05-25T01:06:03.216384Z","epoch_age_seconds":81553,"freshness":"FRESH","line1":"1 59927U 24106F   26145.04587056 -.00000781  00000+0 -18868-4 0  9990","line2":"2 59927  43.0037 261.0374 0001466 275.0450  85.0234 15.27575499112251","mean_motion":15.27575499,"eccentricity":0.0001466,"inclination_deg":43.0037,"raan_deg":261.0374,"arg_perigee_deg":275.045,"mean_anomaly_deg":85.0234,"bstar":-1.8868e-5,"rev_number":11225,"period_min":94.267026470552,"perigee_km":482.05672182847,"apogee_km":484.06842554348,"semimajor_km":6861.199573686,"source":"CELESTRAK","updated_at":"2026-05-25T13:38:19.122622Z"}}}